Weather History for Comanche, TX

Change the Weather History Date:

Friday, September 27, 2013

  Actual Average (KSEP) Record (KSEP)
Temperature  
Mean Temperature 79 °F -  
Max Temperature 89 °F 83 °F 110 °F (1953)
Min Temperature 70 °F 57 °F 33 °F (1942)
Cooling Degree Days 14    
Growing Degree Days 29 (Base 50)    
Moisture  
Dew Point 68 °F    
Average Humidity 73    
Maximum Humidity 95    
Minimum Humidity 51    
Precipitation  
Precipitation 0.00 in - - ()
Sea Level Pressure  
Sea Level Pressure 29.89 in    
Wind  
Wind Speed 9 mph (SSE)    
Max Wind Speed 18 mph    
Max Gust Speed 26 mph    
Visibility 10 miles    
Events      
Averages and records for this station are not official NWS values.
T = Trace of Precipitation, MM = Missing Value Source: NWS Daily Summary

Daily Weather History Graph

Daily Weather History Graph

Search for Another Location

Airport:

Trip Planner

Search our weather history database for the weather conditions in past years. The results will help you decide how hot, cold, wet, or windy it might be!

Date:

Astronomy

Sep. 27, 2013 Rise Set
Actual Time 7:25 AM CDT 7:24 PM CDT
Civil Twilight 7:01 AM CDT 7:48 PM CDT
Nautical Twilight 6:33 AM CDT 8:16 PM CDT
Astronomical Twilight 6:04 AM CDT 8:45 PM CDT
Moon 12:42 AM CDT (9/27) 2:44 PM CDT (9/27)
Length of Visible Light 12h 46m
Length of Day
11h 58m
Last Quarter, 45% of the Moon is Illuminated
Sep 27
Last Quarter
Oct 4
New
Oct 11
First Quarter
Oct 18
Full
Oct 26
Last Quarter

Hourly Weather History & Observations

Time (CDT) Temp. Heat Index Dew Point Humidity Pressure Visibility Wind Dir Wind Speed Gust Speed Precip Events Conditions
12:15 AM 72.0 °F - 59.0 °F 64% 29.89 in 10.0 mi South 5.8 mph - N/A   Clear
12:35 AM 72.9 °F - 59.5 °F 63% 29.89 in 10.0 mi South 5.8 mph - N/A   Scattered Clouds
12:55 AM 72.0 °F - 59.9 °F 66% 29.89 in 10.0 mi South 5.8 mph - N/A   Mostly Cloudy
1:15 AM 73.8 °F - 61.9 °F 66% 29.89 in 10.0 mi South 9.2 mph - N/A   Mostly Cloudy
1:35 AM 73.4 °F - 62.8 °F 69% 29.89 in 10.0 mi South 6.9 mph - N/A   Scattered Clouds
1:55 AM 72.7 °F - 63.7 °F 73% 29.90 in 10.0 mi SSE 6.9 mph - N/A   Clear
2:15 AM 72.9 °F - 64.8 °F 76% 29.91 in 10.0 mi SSE 9.2 mph - N/A   Scattered Clouds
2:35 AM 72.9 °F - 65.5 °F 78% 29.90 in 10.0 mi SSE 8.1 mph - N/A   Scattered Clouds
2:55 AM 72.9 °F - 66.6 °F 81% 29.90 in 10.0 mi SSE 9.2 mph - N/A   Clear
3:15 AM 72.9 °F - 67.3 °F 83% 29.90 in 10.0 mi South 6.9 mph - N/A   Clear
3:35 AM 72.5 °F - 67.6 °F 85% 29.90 in 10.0 mi South 8.1 mph - N/A   Clear
3:55 AM 72.0 °F - 67.6 °F 86% 29.90 in 10.0 mi SSE 6.9 mph - N/A   Clear
4:15 AM 71.6 °F - 68.0 °F 88% 29.89 in 10.0 mi SSE 4.6 mph - N/A   Clear
4:35 AM 71.4 °F - 68.4 °F 90% 29.89 in 10.0 mi SSE 5.8 mph - N/A   Clear
4:55 AM 71.1 °F - 68.9 °F 93% 29.89 in 10.0 mi SSE 5.8 mph - N/A   Clear
5:15 AM 70.9 °F - 68.9 °F 93% 29.89 in 10.0 mi SE 6.9 mph - N/A   Clear
5:35 AM 70.7 °F - 68.9 °F 94% 29.89 in 10.0 mi SSE 6.9 mph - N/A   Clear
5:55 AM 70.3 °F - 68.9 °F 95% 29.89 in 10.0 mi SSE 6.9 mph - N/A   Clear
6:15 AM 70.7 °F - 69.1 °F 95% 29.90 in 10.0 mi SSE 8.1 mph - N/A   Clear
6:35 AM 71.1 °F - 68.9 °F 93% 29.91 in 10.0 mi SSE 9.2 mph - N/A   Clear
6:55 AM 71.1 °F - 68.0 °F 90% 29.91 in 10.0 mi SSE 8.1 mph - N/A   Clear
7:15 AM 71.1 °F - 67.6 °F 89% 29.92 in 10.0 mi SSE 6.9 mph - N/A   Clear
7:35 AM 70.7 °F - 67.6 °F 90% 29.92 in 10.0 mi SSE 8.1 mph - N/A   Clear
7:55 AM 70.7 °F - 68.0 °F 91% 29.92 in 10.0 mi SSE 8.1 mph - N/A   Clear
8:15 AM 71.1 °F - 68.2 °F 91% 29.92 in 10.0 mi SSE 6.9 mph - N/A   Clear
8:35 AM 72.1 °F - 68.5 °F 88% 29.92 in 10.0 mi SSE 5.8 mph - N/A   Clear
8:55 AM 73.4 °F - 69.1 °F 86% 29.93 in 10.0 mi SSE 9.2 mph - N/A   Clear
9:15 AM 74.3 °F - 69.3 °F 84% 29.93 in 10.0 mi SSE 12.7 mph - N/A   Clear
9:35 AM 75.6 °F - 69.8 °F 82% 29.94 in 10.0 mi SSE 10.4 mph 16.1 mph N/A   Mostly Cloudy
9:55 AM 77.4 °F - 69.6 °F 77% 29.94 in 10.0 mi SSE 12.7 mph 16.1 mph N/A   Mostly Cloudy
10:15 AM 79.9 °F - 69.6 °F 71% 29.94 in 10.0 mi SSE 12.7 mph 18.4 mph N/A   Mostly Cloudy
10:35 AM 79.9 °F - 68.9 °F 69% 29.94 in 10.0 mi South 15.0 mph 19.6 mph N/A   Overcast
10:55 AM 82.0 °F 85.1 °F 68.4 °F 63% 29.94 in 10.0 mi South 13.8 mph 21.9 mph N/A   Mostly Cloudy
11:15 AM 82.4 °F 85.4 °F 68.2 °F 62% 29.94 in 10.0 mi South 13.8 mph 20.7 mph N/A   Mostly Cloudy
11:35 AM 82.4 °F 85.4 °F 68.0 °F 62% 29.93 in 10.0 mi South 17.3 mph 24.2 mph N/A   Overcast
11:55 AM 82.4 °F 85.2 °F 67.6 °F 61% 29.94 in 10.0 mi South 13.8 mph 21.9 mph N/A   Overcast
12:15 PM 82.8 °F 85.5 °F 67.8 °F 60% 29.93 in 10.0 mi South 10.4 mph 17.3 mph N/A   Overcast
12:35 PM 83.1 °F 86.6 °F 68.7 °F 62% 29.93 in 10.0 mi SSE 12.7 mph 19.6 mph N/A   Overcast
12:55 PM 82.0 °F 85.3 °F 68.9 °F 64% 29.93 in 10.0 mi SSE 10.4 mph 18.4 mph N/A   Overcast
1:15 PM 82.2 °F 85.5 °F 68.9 °F 64% 29.92 in 10.0 mi South 12.7 mph 21.9 mph N/A   Overcast
1:35 PM 82.0 °F 85.5 °F 69.3 °F 65% 29.92 in 10.0 mi South 13.8 mph 18.4 mph N/A   Overcast
1:55 PM 82.4 °F 86.1 °F 69.6 °F 65% 29.91 in 10.0 mi SSE 13.8 mph 18.4 mph N/A   Overcast
2:15 PM 82.8 °F 86.4 °F 69.4 °F 64% 29.90 in 10.0 mi SSE 10.4 mph 18.4 mph N/A   Overcast
2:35 PM 83.3 °F 87.4 °F 70.0 °F 64% 29.89 in 10.0 mi South 8.1 mph - N/A   Overcast
2:55 PM 84.0 °F 88.1 °F 69.8 °F 62% 29.88 in 10.0 mi SSE 11.5 mph 19.6 mph N/A   Overcast
3:15 PM 84.4 °F 88.5 °F 69.6 °F 61% 29.87 in 10.0 mi SSE 15.0 mph - N/A   Overcast
3:35 PM 85.6 °F 89.7 °F 69.1 °F 58% 29.87 in 10.0 mi SSE 11.5 mph 18.4 mph N/A   Overcast
3:55 PM 85.8 °F 90.4 °F 69.8 °F 59% 29.86 in 10.0 mi SSE 11.5 mph - N/A   Overcast
4:15 PM 86.9 °F 90.3 °F 68.0 °F 53% 29.86 in 10.0 mi South 15.0 mph 20.7 mph N/A   Overcast
4:35 PM 88.7 °F 92.6 °F 68.2 °F 51% 29.85 in 10.0 mi South 15.0 mph 18.4 mph N/A   Mostly Cloudy
4:55 PM 87.3 °F 90.9 °F 68.0 °F 53% 29.85 in 10.0 mi South 18.4 mph 23.0 mph N/A   Mostly Cloudy
5:15 PM 85.5 °F 88.5 °F 67.8 °F 55% 29.85 in 10.0 mi South 13.8 mph 23.0 mph N/A   Scattered Clouds
5:35 PM 87.8 °F 91.4 °F 68.4 °F 52% 29.84 in 10.0 mi South 16.1 mph 20.7 mph N/A   Scattered Clouds
5:55 PM 86.5 °F 90.3 °F 68.7 °F 55% 29.85 in 10.0 mi SSE 15.0 mph 23.0 mph N/A   Scattered Clouds
6:15 PM 86.9 °F 91.0 °F 68.9 °F 55% 29.85 in 10.0 mi SSE 17.3 mph 26.5 mph N/A   Scattered Clouds
6:35 PM 85.5 °F 89.8 °F 69.4 °F 59% 29.84 in 10.0 mi SSE 17.3 mph 24.2 mph N/A   Clear
6:55 PM 84.2 °F 88.1 °F 69.6 °F 61% 29.84 in 10.0 mi SSE 15.0 mph 21.9 mph N/A   Clear
7:15 PM 82.9 °F 86.7 °F 69.8 °F 64% 29.85 in 10.0 mi SSE 15.0 mph 19.6 mph N/A   Clear
7:35 PM 81.5 °F 85.1 °F 70.0 °F 68% 29.84 in 10.0 mi SSE 10.4 mph 19.6 mph N/A   Clear
7:55 PM 80.6 °F 83.9 °F 70.2 °F 70% 29.85 in 10.0 mi SSE 12.7 mph - N/A   Clear
8:15 PM 80.8 °F 84.1 °F 69.8 °F 69% 29.85 in 10.0 mi SSE 10.4 mph - N/A   Clear
8:35 PM 80.1 °F 83.2 °F 70.0 °F 71% 29.86 in 10.0 mi South 9.2 mph - N/A   Clear
8:55 PM 79.5 °F - 70.3 °F 73% 29.86 in 10.0 mi SSE 11.5 mph 17.3 mph N/A   Clear
9:15 PM 79.2 °F - 70.7 °F 75% 29.87 in 10.0 mi SSE 10.4 mph - N/A   Clear
9:35 PM 78.8 °F - 70.9 °F 77% 29.87 in 10.0 mi SSE 10.4 mph - N/A   Clear
9:55 PM 78.3 °F - 71.1 °F 78% 29.87 in 10.0 mi SSE 16.1 mph 20.7 mph N/A   Clear
10:15 PM 78.1 °F - 71.6 °F 80% 29.87 in 10.0 mi SSE 12.7 mph 19.6 mph N/A   Clear
10:35 PM 77.9 °F - 71.6 °F 81% 29.87 in 10.0 mi SSE 13.8 mph 23.0 mph N/A   Clear
10:55 PM 77.5 °F - 71.8 °F 82% 29.89 in 10.0 mi SSE 12.7 mph 19.6 mph N/A   Clear
11:15 PM 77.5 °F - 72.0 °F 83% 29.89 in 10.0 mi South 12.7 mph 19.6 mph N/A   Clear
11:35 PM 77.4 °F - 72.0 °F 83% 29.89 in 10.0 mi SSE 12.7 mph - N/A   Clear
11:55 PM 77.2 °F - 72.0 °F 84% 29.89 in 10.0 mi SSE 12.7 mph - N/A   Clear